Regional Weather Roundup
Issued by NWS

Home | Current Version | Previous Version | Graphics & Text | Print | Product List | Glossary On
Versions: 1 2 3 4 5 6 7 8 9 10 11 12 13 14 15 16 17 18 19 20 21 22 23 24 25 26 27 28 29 30 31 32 33 34 35 36 37 38 39 40 41 42 43 44 45 46 47 48 49 50
000
ASUS43 KDMX 251101
RWRIA

WEATHER ROUNDUP FOR IOWA
NATIONAL WEATHER SERVICE DES MOINES IA
600 AM CDT SAT MAR 25 2017

NOTE: "FAIR" INDICATES FEW OR NO CLOUDS BELOW 12,000 FEET WITH NO
SIGNIFICANT WEATHER AND/OR OBSTRUCTIONS TO VISIBILITY.

* - THESE STATIONS ARE NOT NWS STATIONS...THUS NOT UNDER NWS
QUALITY CONTROL.  THEY ALSO DO NOT REPORT WEATHER SUCH
AS PRECIPITATION OR FOG.

IAZ001>003-012>014-020>022-031>034-043>046-251200-
   NORTHWEST IOWA

CITY           SKY/WX    TMP DP  RH WIND       PRES   REMARKS
CARROLL *      CLOUDY    39  39 100 NE22G29   29.96R FOG     WCI  29
CHEROKEE *     CLOUDY    37  37  99 NE12G21   30.04R FOG     WCI  30
LE MARS *      CLOUDY    37  37 100 NE12G17   30.07R FOG     WCI  30
ORANGE CITY *  CLOUDY    36  36 100 NE10G16   30.06S FOG     WCI  28
SHELDON *      CLOUDY    36  36 100 NE15G22   30.06R FOG     WCI  26
SIOUX CITY     CLOUDY    38  38 100 N16       30.05R FOG     WCI  29
SPENCER        CLOUDY    37  36  96 NE18      30.06R WCI  27
STORM LAKE *   CLOUDY    37  36  93 NE24G31   30.00S FOG     WCI  26
$$

IAZ055>058-069>071-079>083-090>094-251200-
   SOUTHWEST IOWA

CITY           SKY/WX    TMP DP  RH WIND       PRES   REMARKS
ATLANTIC *     HVY RAIN  41  39  93 NE18G26   29.93R
AUDUBON *      LGT RAIN  39  37  93 N14G20    29.95R WCI  31
CLARINDA *     CLOUDY    43  43 100 NE14G21   29.90S FOG
COUNCIL BLFS * MIX PCPN  39  39 100 N17G26    29.93R WCI  30
CRESTON *      MIX PCPN  41  41 100 NE13      29.90R VSB 1/4
HARLAN  *      MIX PCPN  39  39 100 NE17G25   29.97R WCI  30
LAMONI         LGT RAIN  47  46  97 N12       29.85R VSB 3/4
RED OAK *      LGT RAIN  41  41 100 NE16G23   29.91R
SHENANDOAH *   LGT RAIN  43  41  93 NE16      29.90R
$$

IAZ047>049-059>061-072>074-084-251200-
   CENTRAL IOWA

CITY           SKY/WX    TMP DP  RH WIND       PRES   REMARKS
AMES           LGT RAIN  40  40 100 NE14      29.95R FOG     WCI  32
ANKENY *       CLOUDY    41  39  93 NE14      29.93R FOG
BOONE *        CLOUDY    39  39 100 NE22      29.94R FOG     WCI  29
CHARITON *     RAIN      46  46 100 NE13      29.87R VSB 1/4
DES MOINES     LGT RAIN  43  42  97 NE14      29.91R VSB 3/4
GRINNELL*      CLOUDY    40  39  97 NE20      29.92R FOG     WCI  31
MARSHALLTOWN   CLOUDY    39  39 100 NE16      29.94S WCI  30
NEWTON *       CLOUDY    41  41 100 NE20G26   29.91R FOG
PELLA *        CLOUDY    43  43  99 NE8       29.91R FOG
PERRY *        LGT RAIN  40  39  97 N13       29.94R WCI  33
$$

IAZ004>006-015-016-023>025-035-036-251200-
   NORTH CENTRAL IOWA

CITY           SKY/WX    TMP DP  RH WIND       PRES   REMARKS
ALGONA *       CLOUDY    37  37 100 NE16G23   30.04R FOG     WCI  28
CLARION *      CLOUDY    37  37 100 NE21G29   30.00S WCI  27
ESTHERVILLE    CLOUDY    36  36 100 NE18      30.06R WCI  26
FORT DODGE *   CLOUDY    37  34  87 NE15G22   30.00F WCI  28
MASON CITY     CLOUDY    37  35  92 NE22G29   30.05R WCI  26
FOREST CITY *  CLOUDY    37  36  93 NE15G21   30.04S WCI  28
WEBSTER CITY * CLOUDY    39  37  93 NE17G25   29.97S WCI  30
IOWA FALLS *   CLOUDY    38  37  94 NE16G22   29.99S WCI  30
$$

IAZ007>011-017>019-026>030-037>042-050>054-066-251200-
   NORTHEAST IOWA

CITY           SKY/WX    TMP DP  RH WIND       PRES   REMARKS
CEDAR RAPIDS   CLOUDY    41  41 100 NE14      29.92F
CHARLES CITY * CLOUDY    37  37 100 E20G25    30.04R WCI  27
CLINTON *      LGT RAIN  40  39  97 E23       29.95F WCI  30
DECORAH *      CLOUDY    36  36 100 E13       30.05R WCI  27
MONTICELLO *   CLOUDY    39  37  93 NE14      29.97S WCI  31
OELWEIN *      CLOUDY    37  37 100 NE22      29.99F WCI  27
WATERLOO       CLOUDY    38  35  89 NE16      29.98F WCI  29
$$

IAZ064-065-067-068-078-251200-
   EAST CENTRAL IOWA

CITY           SKY/WX    TMP DP  RH WIND       PRES   REMARKS
DAVENPORT      CLOUDY    41  39  93 E22G29    29.93F
IOWA CITY      LGT RAIN  43  40  89 NE18G25   29.93F
MUSCATINE *    CLOUDY    45  43  93 NE9G23    29.92R
QUAD CITIES    CLOUDY    43  40  89 E14       29.93F
$$

IAZ062-063-075>077-085>089-095>099-251200-
   SOUTHEAST IOWA

CITY           SKY/WX    TMP DP  RH WIND       PRES   REMARKS
BURLINGTON     LGT RAIN  46  46 100 NE17      29.85S FOG
FAIRFIELD *    CLOUDY    46  45  93 NE16G25   29.85R FOG
FORT MADISON * LGT RAIN  46  46 100 NE14G25   29.84R
KEOKUK *       CLOUDY    50  48  93 NE14G26   29.82R FOG
OSKALOOSA *    CLOUDY    43  43  98 NE22      29.87R FOG
OTTUMWA        LGT RAIN  46  46 100 NE15      29.86R FOG
WASHINGTON *   CLOUDY    43  43 100 NE21G26   29.88S FOG
$$

ABBREVIATIONS USED IN REMARKS
   TC - TEMPERATURES IN CELSIUS
  WCI - WIND CHILL INDEX
   HX - HEAT INDEX
  VSB - VISIBILITY
$$




USA.gov is the U.S. government's official web portal to all federal, state and local government web resources and services.